Home   Weather   Westerstede   Past weeks

Flag for Germany Past Weather in Westerstede, Lower Saxony, Germany — Yesterday and Last 2 Weeks

Now
50 °F

Broken clouds.


Feels Like: 45 °F
Forecast: 35 / 51 °F
Wind: 15 mph from West

Location: Wittmundhaven

Current Time: Apr 28, 2017 at 2:14:13 pm

Latest Report: Apr 28, 2017 at 1:20 pm


Visibility: N/A

Pressure: 29.86 "Hg

Humidity: 62%

Dew Point: 37 °F

Location of WesterstedeLocation

Past Weather in Westerstede — Graph

°F

Westerstede Temperature Yesterday

Maximum temperature yesterday: 48 °F (at 2:07 pm)
Minimum temperature yesterday: 34 °F (at 2:20 am)
Average temperature yesterday: 42 °F

High & Low Weather Summary for the Past Weeks

 TemperatureHumidityPressure
High55 °F (Apr 21, 1:20 pm)100% (Apr 15, 4:20 am)30.63 "Hg (Apr 15, 4:20 am)
Low27 °F (Apr 20, 6:20 am)42% (Apr 19, 6:20 pm)29.59 "Hg (Apr 25, 4:34 am)
Average43 °F76%30.08 "Hg
* Reported Apr 13 12:20 pm — Apr 28 12:20 pm, Westerstede, Weather by CustomWeather, © 2017

Note: Actual official high and low records may vary slightly from our data, if they occured in-between our weather recording intervals... More about our weather records

Advertising

Westerstede Weather History for the Previous 24 Hours

Scroll right to see more
 ConditionsComfort  
Time TempWeatherWind HumidityBarometerVisibility
12:20 pm
Fri, Apr 28
48 °FScattered clouds.10 mph62%29.86 "HgN/A
11:20 am48 °FScattered clouds.8 mph71%29.89 "HgN/A
10:20 am46 °FSprinkles. Scattered clouds.12 mph82%29.86 "HgN/A
9:20 am46 °FScattered clouds.12 mph82%29.86 "HgN/A
8:20 am45 °FBroken clouds.8 mph87%29.86 "HgN/A
7:20 am43 °FBroken clouds.6 mph87%29.86 "HgN/A
6:20 am41 °FPartly sunny.7 mph93%29.86 "Hg6 mi
5:20 am43 °FPartly cloudy.7 mph87%29.86 "HgN/A
4:20 am43 °FPassing clouds.10 mph87%29.86 "HgN/A
3:20 am43 °FPassing clouds.8 mph87%29.89 "HgN/A
2:20 am43 °FPassing clouds.8 mph81%29.89 "HgN/A
1:20 am43 °FPassing clouds.8 mph87%29.89 "HgN/A
12:20 am45 °FPassing clouds.10 mph81%29.89 "HgN/A
11:20 pm
Thu, Apr 27
45 °FPartly cloudy.10 mph81%29.92 "HgN/A
10:30 pm45 °FPartly cloudy.9 mph81%29.92 "HgN/A
9:20 pm45 °FPassing clouds.13 mph76%29.92 "HgN/A
8:20 pm46 °FPartly sunny.9 mph66%29.92 "HgN/A
7:20 pm46 °FPartly sunny.16 mph71%29.92 "HgN/A
6:20 pm48 °FBroken clouds.13 mph62%29.92 "HgN/A
5:20 pm48 °FBroken clouds.16 mph62%29.92 "HgN/A
4:20 pm48 °FBroken clouds.12 mph62%29.92 "HgN/A
3:20 pm45 °FBroken clouds.9 mph76%29.95 "HgN/A
2:20 pm45 °FSprinkles. Broken clouds.10 mph71%29.95 "HgN/A
2:07 pm48 °FSprinkles. Broken clouds.12 mph66%29.95 "HgN/A
Weather by CustomWeather, © 2017

See weather overviewHow to use our weather pages